Pitt Meadows, British Columbia

10:41 PM PDT on May 27, 2017 (GMT -0700)
Pitt Meadows

Weather History for CWMM - October, 2012

Change the Weather History Date:

Saturday, October 6, 2012

  Actual Average Record
Temperature  
Mean Temperature 54 °F -  
Max Temperature 71 °F - - ()
Min Temperature 36 °F - - ()
Degree Days  
Heating Degree Days 12    
Growing Degree Days 4 (Base 50)    
Moisture  
Dew Point 38 °F    
Average Humidity 62    
Maximum Humidity 95    
Minimum Humidity 20    
Precipitation  
Precipitation 0.00 in - - ()
Sea Level Pressure  
Sea Level Pressure 30.23 in    
Wind  
Wind Speed 1 mph ()    
Max Wind Speed 7 mph    
Max Gust Speed -    
T = Trace of Precipitation, MM = Missing Value Source: Averaged Metar Reports

Daily Weather History Graph

Daily Weather History Graph

Search for Another Location

Airport or City:

Trip Planner

Search our weather history database for the weather conditions in past years. The results will help you decide how hot, cold, wet, or windy it might be!

Date:

Astronomy

Oct. 06, 2012 Rise Set
Actual Time 7:18 AM PDT 6:37 PM PDT
Civil Twilight 6:47 AM PDT 7:09 PM PDT
Nautical Twilight 6:10 AM PDT 7:46 PM PDT
Astronomical Twilight 5:32 AM PDT 8:23 PM PDT
Moon 10:34 PM PDT (10/6) 1:41 PM PDT (10/6)
Length of Visible Light 12h 22m
Length of Day
11h 18m
Waning Gibbous, 64% of the Moon is Illuminated
Oct 6
Waning Gibbous
Oct 8
Last Quarter
Oct 15
New
Oct 21
First Quarter
Oct 29
Full

Hourly Weather History & Observations

Time (PDT) Temp. Dew Point Humidity Pressure Visibility Wind Dir Wind Speed Gust Speed Precip Events Conditions
12:00 AM 43.5 °F 38.1 °F 81% 30.27 in - Calm Calm - N/A   Unknown
1:00 AM 41.7 °F 36.9 °F 83% 30.28 in - Calm Calm - N/A   Unknown
2:00 AM 42.4 °F 39.9 °F 91% 30.29 in - Calm Calm - N/A   Unknown
3:00 AM 42.4 °F 39.0 °F 88% 30.29 in - Calm Calm - N/A   Unknown
4:00 AM 39.6 °F 37.2 °F 91% 30.28 in - ESE 1.2 mph - N/A   Unknown
5:00 AM 40 °F 37 °F 85% 30.28 in - Calm Calm - -  
5:00 AM 39.6 °F 37.0 °F 91% 30.28 in - Calm Calm - N/A   Unknown
6:00 AM 38.1 °F 36.7 °F 95% 30.28 in - East 2.3 mph - N/A   Unknown
7:00 AM 37.4 °F 35.4 °F 93% 30.29 in - Calm Calm - N/A   Unknown
8:00 AM 39.7 °F 37.9 °F 93% 30.29 in - ESE 2.3 mph - N/A   Unknown
9:00 AM 48.7 °F 41.7 °F 77% 30.30 in - ESE 1.2 mph - N/A   Unknown
10:00 AM 54.7 °F 40.3 °F 58% 30.29 in - Calm Calm - N/A   Unknown
11:00 AM 60 °F 41 °F 37% 30.27 in - West 2.3 mph - -  
11:00 AM 60.4 °F 40.6 °F 48% 30.27 in - West 2.3 mph - N/A   Unknown
12:00 PM 64.9 °F 39.0 °F 39% 30.27 in - West 3.5 mph - N/A   Unknown
1:00 PM 68.2 °F 35.8 °F 30% 30.25 in - West 3.5 mph - N/A   Unknown
2:00 PM 70.9 °F 36.7 °F 29% 30.22 in - West 4.6 mph - N/A   Unknown
3:00 PM 71.4 °F 37.4 °F 29% 30.20 in - West 4.6 mph - N/A   Unknown
4:00 PM 70.5 °F 36.3 °F 29% 30.19 in - WSW 6.9 mph - N/A   Unknown
5:00 PM 69 °F 37 °F 20% 30.17 in - West 6.9 mph - -  
5:00 PM 69.3 °F 36.7 °F 30% 30.17 in - West 6.9 mph - N/A   Unknown
6:00 PM 66.4 °F 35.4 °F 32% 30.16 in - West 4.6 mph - N/A   Unknown
7:00 PM 59.4 °F 38.1 °F 45% 30.15 in - Calm Calm - N/A   Unknown
8:00 PM 54.3 °F 39.4 °F 57% 30.15 in - Calm Calm - N/A   Unknown
9:00 PM 50.2 °F 38.5 °F 64% 30.15 in - Calm Calm - N/A   Unknown
10:00 PM 47.3 °F 38.8 °F 72% 30.15 in - Calm Calm - N/A   Unknown
11:00 PM 47 °F 41 °F 74% 30.16 in - Calm Calm - -  
11:00 PM 46.9 °F 41.4 °F 81% 30.16 in - Calm Calm - N/A   Unknown